Location: Carthage
(33.8834°N, 106.6595°W)
Time: 12:39:31
(UTC+00:00)

Cosmos 2227 Rocket - Pass Details

Date: 13 February 2026
Orbit: 836 x 845 km, 71.0° (Epoch: 11 March)

Event Time Altitude Azimuth Distance (km) Brightness Sun altitude
Exits shadow 12:34:12 - 332° (NNW) 2,794 4.6 -16.9°
Reaches altitude 10° 12:35:04 10° 331° (NNW) 2,469 4.3 -16.7°
Maximum altitude 12:40:37 58° 253° (WSW) 982 2.2 -15.6°
Drops below altitude 10° 12:46:08 10° 176° (S) 2,455 4.7 -14.5°
Sets 12:48:36 0° 172° (S) 3,386 5.5 -13.9°
